Location: Feigenhofen
(48.4939°N, 10.7793°E)
Time: 17:20:29
(UTC+00:00)

Cosmos 1703 - Pass Details

Date: 26 May 2022
Orbit: 518 x 535 km, 82.5° (Epoch: 06 July)

Event Time Altitude Azimuth Distance (km) Brightness Sun altitude
Exits shadow 01:37:16 13° 171° (S) 1,578 5.2 -13.4°
Maximum altitude 01:40:35 54° 95° (E) 653 3.8 -13.1°
Drops below altitude 10° 01:44:27 10° 18° (NNE) 1,797 7.2 -12.7°
Sets 01:46:38 0° 14° (NNE) 2,690 8.2 -12.5°
